Terminal Aerodrome Forecast
Issued by NWS Sioux Falls, SD

Home | Current Version | Previous Version | Text Only | Print | Product List | Glossary On
Versions: 1 2 3 4 5 6 7 8 9 10 11 12 13 14 15 16 17 18 19 20 21 22 23 24 25 26 27 28 29 30 31 32 33 34 35 36
000
FTUS43 KFSD 251700
TAFSUX
TAF
KSUX 251720Z 2518/2618 14012KT P6SM SCT025
     FM252000 33010KT P6SM BKN040
     FM260300 VRB04KT P6SM FEW035
     FM260800 02004KT 5SM BR BKN120=

USA.gov is the U.S. government's official web portal to all federal, state and local government web resources and services.